Vorticity
3 3 3 3 3 3 2 2 2 2 2 3 4 5 6 6 6 5 5 5 5 5 5 5 5 6 6 6 7 7 7 7 8 8 8 9 9 9 9 9 8 8 8 8 8 8 8 8 8 8 8 8 8 8 9 9 9 8 8 8 8 8 8 8 8 8 8 9 9
3 3 3 3 3 3 3 2 2 2 3 4 5 6 6 6 6 6 5 5 5 5 5 5 5 6 6 6 7 7 7 7 7 8 8 8 9 9 8 8 8 8 8 8 8 8 8 8 8 8 8 8 8 8 9 9 9 8 8 8 8 8 8 8 8 8 8 8 8
3 3 3 3 3 3 3 2 2 2 3 4 5 6 6 6 6 6 5 5 5 5 5 6 6 6 6 6 6 7 7 7 7 7 8 8 8 8 9 8 8 8 9 8 8 8 8 8 8 8 8 8 8 8 8 8 8 8 8 8 8 8 8 8 8 8 8 8 8
3 2 3 3 3 3 3 2 2 2 3 4 5 6 6 6 6 6 5 5 5 5 5 6 6 6 6 6 6 7 7 7 7 7 8 8 8 9 9 8 8 9 9 8 8 8 8 8 8 8 8 8 8 8 8 8 8 8 8 8 7 8 8 8 8 8 8 8 8
3 2 2 3 3 3 3 2 2 3 3 4 5 6 5 5 5 5 5 5 5 5 6 6 6 6 6 7 7 7 7 7 8 8 8 8 8 8 8 8 9 9 9 9 8 8 8 8 8 8 8 8 8 8 8 7 7 7 8 8 8 8 8 8 8 8 8 8 8
3 2 2 3 3 3 3 2 2 3 3 5 5 6 5 5 5 5 5 5 6 6 6 6 6 6 6 7 7 7 7 7 8 8 8 8 8 8 8 9 9 9 9 9 9 8 8 8 8 8 8 8 8 8 8 8 8 7 7 8 9 9 8 8 8 8 8 8 8
3 2 2 3 3 3 3 2 2 3 4 5 5 5 5 5 5 5 6 6 6 6 6 6 6 6 6 7 7 7 7 7 7 8 8 8 8 8 9 9 9 9 9 9 9 8 8 8 8 8 8 8 8 8 8 8 8 7 7 8 8 9 9 9 8 8 8 8 8
3 3 2 3 3 3 2 2 2 3 4 5 5 5 6 6 6 6 6 6 6 6 6 6 6 7 7 7 7 7 7 7 7 8 8 8 8 9 9 9 9 9 9 9 9 8 8 8 8 8 8 8 8 8 8 8 8 8 8 8 8 9 10 9 9 9 9 9 9
4 3 2 3 3 3 2 2 2 3 4 5 5 6 6 6 6 6 6 6 6 6 6 6 6 6 7 7 7 7 7 7 7 8 8 9 9 9 9 9 9 9 9 9 9 8 8 8 8 8 8 8 8 8 8 8 8 8 8 8 8 9 10 10 10 10 10 9 9
4 3 3 3 3 3 2 2 3 4 4 5 6 6 6 6 6 6 6 6 6 6 6 7 6 6 7 7 7 7 7 8 8 8 8 9 9 9 9 9 9 8 8 9 8 8 7 7 8 8 8 8 8 7 8 8 8 8 8 9 9 9 9 10 11 11 10 10 10
4 3 3 3 3 2 2 2 3 4 5 6 6 6 6 6 6 6 6 6 6 6 7 7 7 7 7 7 7 7 7 7 8 8 8 9 9 9 9 8 8 8 8 8 8 8 7 7 8 8 8 8 8 8 8 8 9 9 9 9 10 10 10 11 12 12 11 11 11
4 3 3 3 2 2 2 3 4 5 5 6 6 6 6 6 6 6 6 6 6 6 7 7 7 7 7 7 7 7 7 7 8 8 8 8 9 9 8 8 8 8 8 8 8 8 8 8 8 8 8 8 8 8 8 8 9 9 9 10 10 11 11 11 12 12 12 11 11
4 3 3 3 2 2 2 3 4 5 6 6 6 6 6 6 6 6 6 6 6 7 7 7 7 7 7 7 7 7 7 7 7 8 8 9 8 8 8 8 8 8 8 8 8 8 8 8 8 8 8 8 9 9 9 9 10 10 10 10 11 12 12 12 13 13 12 12 13
4 3 3 2 2 2 3 4 5 5 6 6 6 6 6 6 6 6 6 6 7 7 7 7 7 7 7 6 6 7 7 7 8 8 8 9 9 9 8 8 8 8 8 8 8 8 8 8 8 8 8 8 9 10 10 11 11 11 11 12 12 13 13 14 14 13 13 14 14
4 3 3 2 2 2 3 4 5 6 6 6 6 6 6 6 6 6 6 7 7 7 6 6 7 7 7 6 6 7 7 8 8 8 8 9 9 9 8 8 8 8 8 8 8 9 9 9 9 9 9 9 10 10 11 12 12 12 13 13 14 14 14 14 15 15 15 15 14
3 3 2 2 2 3 4 5 6 6 6 6 6 6 6 6 6 6 7 7 7 6 6 7 6 6 6 7 7 7 7 8 8 8 9 8 8 8 8 8 8 8 8 8 9 9 10 10 10 10 10 10 11 11 12 13 13 14 14 15 15 15 15 16 16 16 16 15 15
3 2 2 2 3 4 5 6 6 6 6 6 6 6 6 6 6 6 7 7 6 6 6 6 6 6 6 7 7 8 8 8 8 9 9 8 8 8 8 8 8 8 9 9 9 9 10 11 11 11 11 11 12 12 13 13 14 15 15 16 16 16 16 16 16 16 16 16 16
2 2 2 2 3 4 5 6 6 6 6 6 6 6 6 6 6 7 7 7 6 6 6 6 6 6 6 6 7 8 8 8 8 8 8 8 8 8 8 9 9 9 9 10 10 10 10 11 11 12 12 13 13 13 14 14 15 15 16 16 17 17 17 17 17 16 16 16 16
2 2 2 3 4 5 6 6 6 6 6 7 6 6 6 6 6 6 6 7 6 6 6 5 6 7 7 7 7 8 8 8 8 8 8 8 8 8 9 9 9 9 10 10 11 11 11 11 12 12 13 13 14 14 15 15 16 16 17 17 17 17 17 17 17 16 16 16 16
2 2 3 4 5 5 6 6 6 7 7 6 6 6 6 6 6 6 6 6 6 6 6 6 6 7 7 8 8 8 8 9 8 8 8 8 9 9 9 9 10 10 10 11 11 11 12 12 13 13 14 14 14 15 16 16 17 17 17 18 18 17 17 16 16 16 16 15 15
2 3 3 4 5 6 6 7 7 7 7 6 6 6 6 6 6 7 7 6 6 6 6 7 7 7 7 8 8 8 8 9 9 9 9 9 9 9 10 10 10 10 11 12 12 12 13 13 13 14 15 15 16 16 16 16 17 17 18 18 18 17 17 16 16 15 15 14 13
2 3 4 5 6 6 7 7 7 7 6 6 6 6 6 6 7 7 6 6 6 7 7 7 7 8 8 8 8 8 8 9 9 9 9 9 10 10 10 10 10 11 12 13 13 13 13 14 15 15 16 16 16 17 17 17 17 17 17 17 17 16 16 15 15 14 13 13 12
3 4 5 6 6 7 7 7 7 6 6 6 6 6 6 6 6 6 6 6 7 7 7 7 8 8 8 8 8 8 8 9 9 9 10 10 10 10 11 11 11 12 13 14 14 14 14 15 16 17 17 17 17 17 17 18 17 17 17 16 16 15 15 14 14 13 12 11 10
4 5 6 6 7 7 7 7 6 6 6 6 6 6 6 7 6 6 6 7 7 7 7 7 8 8 8 8 9 9 9 9 9 10 10 10 11 11 11 12 13 14 15 15 16 16 17 17 17 17 18 18 18 18 18 18 17 17 16 15 15 14 14 13 12 11 10 9 9
5 6 6 7 7 7 7 7 6 6 6 6 6 6 7 7 7 7 7 7 7 7 7 7 7 8 8 8 9 9 9 10 10 10 10 11 11 12 12 13 14 15 16 16 17 18 19 19 19 18 18 19 18 18 18 17 17 16 15 14 14 13 12 12 11 10 9 8 8
6 6 7 7 7 7 7 7 6 6 6 6 6 7 7 7 7 6 7 7 7 7 7 7 7 8 8 9 9 10 10 11 11 11 11 11 12 13 14 15 16 16 17 17 18 18 19 20 20 20 19 18 18 17 16 15 15 14 13 13 12 11 11 10 10 9 8 8 8
6 7 7 7 7 7 7 7 6 6 6 6 7 7 7 6 6 6 7 6 6 6 6 7 8 8 9 9 10 10 11 11 12 12 12 12 13 13 14 16 17 17 18 18 18 19 19 20 20 20 19 18 16 15 14 13 13 12 12 11 11 10 10 9 9 9 8 8 8
7 7 8 7 7 7 7 6 6 6 6 6 7 7 6 6 6 6 6 6 5 6 6 8 8 9 9 10 11 11 11 11 12 13 13 13 14 14 15 16 17 18 19 19 19 19 20 20 20 19 18 16 14 13 13 12 11 11 11 10 10 9 9 8 8 8 8 9 9
8 8 8 8 7 7 6 6 6 6 6 6 6 6 6 6 6 5 5 5 6 7 8 9 9 9 10 11 11 11 12 12 13 13 13 13 14 16 16 17 18 19 19 19 19 20 20 20 19 18 16 14 12 11 11 11 11 10 10 9 9 9 8 8 8 8 8 9 9
8 8 8 7 7 6 6 6 6 6 6 6 6 6 6 5 5 5 6 6 8 9 9 9 9 10 11 12 11 12 12 13 13 13 13 14 15 16 17 18 19 19 20 20 20 20 20 19 18 16 14 12 11 10 10 10 10 9 9 9 8 8 8 8 8 9 9 9 10
8 8 7 7 6 6 6 6 6 6 6 6 6 6 6 5 6 6 7 8 8 9 9 9 10 11 11 11 11 12 12 12 13 14 15 15 15 16 17 19 20 20 21 20 20 19 19 18 16 14 12 10 10 9 9 9 9 9 9 9 8 8 9 9 9 9 10 10 11
8 8 7 6 6 6 6 6 6 6 6 6 6 6 6 6 7 7 8 8 8 9 9 10 11 11 11 11 12 12 13 13 14 15 16 16 16 17 18 20 21 21 20 20 19 18 17 16 14 12 10 9 9 9 9 9 8 8 9 9 9 9 9 9 10 10 10 11 12
8 7 7 6 6 6 6 6 6 6 6 6 6 6 6 7 7 8 8 9 9 10 10 11 11 11 12 12 12 13 14 15 15 16 17 17 17 18 19 21 22 21 20 19 18 17 15 14 12 10 9 9 8 8 8 8 9 9 9 9 9 9 10 10 11 11 11 12 14
7 7 6 6 6 6 6 6 6 6 6 6 6 7 7 7 8 8 9 9 9 10 10 11 12 12 12 12 13 13 14 15 16 17 17 18 18 19 20 21 21 20 19 18 16 15 14 12 10 9 9 8 8 8 9 9 9 9 9 9 10 10 11 11 12 12 12 13 16
7 6 6 6 6 6 6 6 6 6 6 6 7 7 7 8 8 9 9 9 9 10 10 11 12 12 12 13 14 14 15 16 17 18 19 19 19 19 20 20 19 18 17 16 15 13 12 10 9 9 8 8 9 9 9 9 9 9 10 10 10 11 11 12 12 12 13 15 18
6 6 6 6 6 6 6 6 6 6 7 7 7 7 7 8 8 9 9 8 9 10 11 11 12 12 13 14 15 16 17 17 18 19 20 20 19 19 19 18 17 17 16 14 13 12 10 9 8 8 9 9 9 9 9 10 10 10 10 10 11 12 12 13 13 13 14 17 19
6 6 6 6 6 7 6 6 7 7 7 7 7 7 7 8 8 9 9 9 10 11 12 12 12 14 15 15 16 17 19 19 19 19 20 21 20 19 17 16 16 15 14 13 11 10 9 9 8 9 9 9 10 10 10 10 10 10 10 11 12 13 13 14 14 14 16 19 20
6 6 6 7 7 7 7 7 7 7 7 7 7 7 7 8 8 9 10 11 12 12 12 13 14 15 16 16 16 17 19 21 21 20 19 20 19 18 16 15 14 13 13 12 10 9 9 8 8 9 9 10 10 10 10 10 10 10 11 12 13 14 14 14 15 16 17 19 19
6 6 7 7 7 7 7 7 7 7 7 7 7 7 8 9 10 10 11 12 12 12 13 13 15 16 16 16 17 18 20 22 22 21 19 18 17 16 15 14 12 12 11 10 9 9 9 8 9 9 10 10 11 11 10 10 11 11 12 13 13 14 15 15 16 17 18 19 18
6 6 7 7 7 7 7 7 7 7 7 7 8 8 9 10 10 11 11 12 13 14 14 14 15 16 17 18 18 19 19 21 21 21 19 16 15 14 14 13 11 11 10 10 9 9 8 9 9 9 10 10 11 11 11 11 11 12 13 14 14 14 15 16 17 17 18 17 17
6 7 7 7 7 7 7 7 7 7 7 7 8 9 10 10 11 11 12 13 14 15 15 15 16 17 18 20 20 19 19 19 20 19 17 15 14 13 12 11 11 10 10 9 9 9 8 8 9 9 10 10 11 11 11 11 12 13 14 14 14 15 15 15 16 17 17 17 16
Height
3132 3131 3131 3130 3129 3128 3128 3127 3126 3125 3124 3123 3122 3120 3119 3118 3117 3115 3114 3113 3112 3110 3109 3108 3106 3105 3104 3103 3101 3100 3098 3097 3096 3094 3093 3092 3090 3088 3087 3085 3084 3082 3080 3079 3077 3075 3073 3072 3070 3068 3067 3065 3063 3062 3061 3059 3057 3055 3054 3052 3051 3049 3048 3046 3045 3044 3043 3042 3040
3130 3129 3128 3128 3127 3126 3125 3124 3123 3122 3121 3120 3119 3118 3117 3115 3114 3113 3112 3110 3109 3107 3106 3105 3103 3102 3101 3099 3098 3097 3095 3094 3093 3091 3090 3088 3087 3085 3084 3082 3081 3079 3077 3075 3074 3072 3070 3068 3067 3065 3063 3062 3061 3059 3058 3056 3054 3052 3050 3049 3047 3046 3044 3043 3041 3040 3039 3037 3036
3128 3127 3126 3126 3125 3124 3123 3122 3121 3120 3119 3118 3117 3115 3114 3113 3111 3110 3109 3107 3106 3104 3103 3102 3100 3099 3098 3096 3095 3093 3092 3091 3089 3088 3087 3085 3084 3082 3081 3079 3077 3076 3074 3072 3070 3069 3067 3065 3063 3062 3060 3058 3057 3056 3054 3053 3051 3049 3047 3046 3044 3043 3041 3039 3038 3036 3035 3033 3032
3126 3125 3124 3123 3123 3122 3121 3120 3119 3118 3117 3116 3114 3113 3112 3110 3108 3107 3106 3105 3103 3102 3100 3099 3098 3096 3095 3093 3092 3090 3089 3088 3086 3084 3083 3082 3080 3079 3077 3076 3074 3073 3071 3069 3067 3065 3063 3062 3060 3058 3057 3055 3054 3052 3051 3049 3048 3046 3044 3043 3041 3039 3038 3036 3035 3033 3032 3030 3028
3124 3123 3122 3121 3120 3120 3119 3118 3117 3116 3115 3113 3112 3111 3109 3108 3106 3105 3103 3102 3101 3099 3098 3096 3095 3093 3092 3090 3089 3088 3086 3084 3083 3081 3080 3078 3077 3076 3074 3073 3071 3069 3068 3066 3064 3062 3060 3058 3057 3055 3053 3052 3050 3049 3047 3046 3044 3042 3041 3039 3038 3036 3035 3033 3032 3030 3028 3027 3025
3122 3121 3120 3119 3118 3118 3117 3115 3114 3113 3112 3111 3110 3108 3107 3105 3104 3103 3101 3100 3098 3097 3095 3094 3092 3091 3089 3088 3086 3084 3083 3082 3080 3078 3077 3075 3074 3073 3071 3069 3068 3066 3064 3063 3061 3059 3057 3055 3053 3052 3050 3048 3047 3045 3043 3042 3040 3038 3037 3036 3034 3033 3031 3029 3028 3027 3025 3023 3022
3120 3119 3118 3117 3116 3115 3114 3113 3112 3111 3110 3109 3107 3106 3104 3103 3102 3100 3099 3097 3096 3094 3093 3091 3089 3088 3086 3085 3083 3082 3080 3079 3077 3076 3074 3072 3071 3069 3068 3066 3064 3063 3061 3059 3057 3055 3053 3052 3050 3048 3047 3045 3043 3042 3040 3038 3036 3034 3033 3032 3031 3029 3028 3026 3024 3023 3022 3020 3018
3118 3117 3116 3115 3114 3113 3112 3111 3110 3109 3108 3106 3105 3103 3102 3100 3099 3098 3096 3095 3093 3092 3090 3088 3087 3085 3083 3082 3080 3079 3077 3076 3074 3073 3071 3069 3068 3066 3064 3063 3061 3059 3057 3055 3053 3052 3050 3048 3046 3044 3043 3041 3039 3038 3036 3034 3033 3031 3029 3028 3027 3025 3024 3023 3021 3019 3018 3016 3014
3115 3114 3114 3113 3112 3111 3110 3108 3108 3106 3105 3104 3102 3101 3099 3098 3096 3095 3093 3092 3091 3089 3087 3086 3084 3082 3081 3079 3077 3076 3074 3072 3071 3069 3068 3066 3064 3062 3061 3059 3057 3055 3053 3052 3050 3048 3046 3044 3043 3041 3039 3037 3035 3033 3032 3030 3028 3027 3025 3024 3022 3021 3020 3018 3017 3015 3013 3012 3010
3113 3112 3112 3110 3109 3108 3107 3106 3105 3104 3103 3101 3100 3098 3097 3095 3093 3092 3091 3089 3088 3086 3084 3083 3081 3079 3078 3076 3074 3073 3071 3069 3067 3066 3064 3062 3060 3059 3057 3055 3053 3052 3050 3048 3046 3044 3042 3040 3038 3037 3035 3033 3031 3029 3028 3026 3024 3023 3021 3019 3018 3017 3015 3014 3013 3011 3009 3007 3006
3111 3110 3109 3108 3107 3106 3105 3104 3103 3101 3100 3098 3097 3095 3094 3092 3091 3089 3088 3086 3085 3083 3081 3079 3078 3076 3074 3073 3071 3069 3067 3066 3064 3062 3060 3059 3057 3055 3053 3051 3049 3048 3046 3044 3042 3040 3038 3036 3035 3033 3031 3029 3028 3025 3023 3022 3020 3018 3016 3015 3013 3012 3011 3009 3008 3007 3005 3003 3001
3109 3108 3107 3106 3105 3103 3103 3101 3100 3099 3097 3096 3094 3093 3091 3090 3088 3086 3085 3083 3082 3080 3078 3076 3075 3073 3071 3069 3068 3066 3064 3062 3061 3059 3057 3055 3053 3052 3050 3048 3046 3044 3042 3040 3038 3036 3034 3033 3031 3029 3027 3025 3023 3022 3019 3018 3016 3014 3012 3011 3009 3008 3006 3005 3003 3002 3000 2998 2997
3106 3106 3104 3103 3102 3101 3100 3099 3097 3096 3095 3093 3092 3090 3088 3087 3085 3083 3082 3080 3079 3077 3075 3073 3072 3070 3068 3066 3065 3063 3061 3059 3057 3055 3054 3052 3050 3048 3046 3044 3042 3040 3038 3037 3035 3033 3031 3029 3027 3025 3023 3021 3019 3017 3015 3013 3011 3009 3008 3006 3004 3003 3002 3000 2999 2997 2996 2994 2992
3104 3103 3102 3101 3100 3098 3097 3096 3095 3093 3092 3090 3089 3087 3086 3084 3082 3081 3079 3077 3076 3074 3072 3071 3069 3067 3065 3063 3061 3059 3058 3056 3054 3052 3050 3048 3046 3044 3043 3041 3039 3037 3035 3033 3031 3029 3027 3025 3023 3021 3018 3017 3015 3013 3011 3009 3007 3005 3003 3001 3000 2998 2997 2996 2994 2993 2991 2989 2988
3102 3101 3100 3098 3097 3096 3095 3093 3092 3090 3089 3088 3086 3084 3083 3081 3079 3078 3076 3074 3073 3071 3069 3068 3066 3064 3062 3060 3058 3056 3054 3052 3050 3048 3047 3045 3043 3041 3039 3037 3035 3033 3031 3029 3027 3025 3023 3021 3019 3016 3014 3012 3010 3008 3007 3005 3003 3001 2999 2997 2995 2994 2992 2991 2989 2988 2986 2985 2983
3099 3098 3097 3096 3095 3093 3092 3090 3089 3088 3086 3085 3083 3082 3080 3078 3077 3075 3073 3071 3069 3068 3066 3064 3063 3061 3059 3057 3055 3053 3051 3049 3047 3045 3043 3041 3039 3037 3035 3033 3031 3029 3027 3025 3023 3022 3019 3017 3015 3012 3010 3008 3006 3004 3002 3000 2998 2996 2994 2993 2991 2989 2988 2986 2985 2983 2982 2980 2979
3097 3096 3095 3093 3092 3091 3089 3088 3086 3085 3083 3082 3080 3078 3077 3075 3073 3072 3070 3068 3066 3065 3063 3061 3059 3057 3055 3053 3051 3049 3047 3045 3043 3041 3039 3037 3035 3033 3031 3029 3028 3025 3023 3021 3019 3018 3015 3013 3011 3008 3006 3003 3002 2999 2998 2996 2994 2992 2990 2988 2987 2985 2983 2982 2981 2979 2978 2976 2975
3094 3093 3092 3091 3089 3088 3086 3085 3083 3082 3080 3079 3077 3076 3074 3072 3071 3069 3067 3065 3063 3061 3059 3058 3056 3054 3052 3050 3048 3046 3044 3042 3040 3038 3036 3034 3032 3029 3028 3026 3023 3021 3019 3017 3015 3013 3011 3008 3006 3004 3002 2999 2997 2995 2993 2991 2989 2988 2986 2984 2983 2981 2979 2978 2977 2975 2973 2972 2971
3092 3091 3089 3088 3086 3085 3083 3082 3080 3079 3077 3076 3074 3073 3071 3069 3068 3066 3064 3062 3060 3058 3056 3054 3053 3051 3048 3047 3045 3043 3040 3038 3036 3034 3032 3030 3028 3026 3023 3022 3019 3017 3015 3013 3011 3008 3006 3004 3002 2999 2997 2995 2993 2991 2989 2987 2985 2983 2982 2980 2978 2977 2975 2974 2973 2971 2970 2968 2967
3089 3088 3087 3085 3083 3082 3080 3079 3077 3076 3074 3073 3071 3070 3068 3066 3064 3063 3061 3059 3057 3055 3053 3051 3049 3047 3045 3043 3041 3039 3037 3035 3033 3030 3028 3026 3024 3022 3020 3018 3015 3013 3011 3009 3006 3004 3002 2999 2997 2995 2993 2991 2988 2987 2984 2983 2981 2979 2978 2976 2974 2973 2972 2970 2969 2968 2966 2965 2964
3087 3085 3084 3082 3081 3079 3077 3076 3074 3073 3071 3070 3068 3067 3065 3063 3062 3060 3058 3056 3053 3052 3049 3048 3046 3044 3042 3040 3038 3036 3034 3032 3029 3027 3025 3023 3020 3018 3016 3013 3011 3009 3007 3005 3002 3000 2997 2995 2993 2990 2988 2986 2984 2982 2980 2978 2977 2975 2973 2972 2971 2969 2968 2967 2965 2964 2963 2962 2960
3084 3083 3081 3079 3078 3076 3074 3073 3071 3070 3068 3067 3065 3063 3062 3060 3058 3057 3054 3053 3050 3048 3046 3044 3042 3040 3038 3036 3034 3032 3030 3028 3026 3023 3021 3019 3016 3014 3012 3009 3007 3005 3003 3000 2998 2995 2993 2990 2988 2986 2984 2982 2980 2978 2976 2974 2973 2971 2970 2969 2968 2966 2965 2963 2962 2961 2959 2958 2957
3081 3080 3078 3076 3075 3073 3071 3070 3068 3067 3065 3064 3062 3061 3059 3057 3055 3053 3051 3049 3047 3045 3043 3041 3039 3037 3035 3033 3031 3029 3027 3024 3022 3020 3018 3015 3013 3010 3008 3005 3003 3001 2998 2996 2993 2991 2988 2986 2984 2982 2980 2978 2976 2973 2972 2970 2968 2967 2966 2965 2964 2963 2962 2960 2959 2958 2956 2955 2953
3078 3077 3075 3073 3072 3070 3068 3067 3065 3064 3062 3061 3059 3058 3056 3054 3052 3050 3048 3046 3044 3042 3040 3038 3036 3034 3032 3030 3027 3025 3023 3020 3018 3016 3014 3011 3009 3006 3004 3001 2999 2996 2994 2991 2989 2986 2984 2981 2979 2977 2975 2973 2971 2969 2968 2966 2964 2963 2962 2961 2960 2959 2958 2957 2956 2954 2953 2951 2950
3075 3074 3072 3071 3069 3067 3065 3064 3063 3061 3059 3058 3057 3055 3053 3051 3049 3047 3045 3043 3041 3039 3037 3035 3033 3031 3028 3026 3024 3022 3019 3017 3014 3012 3009 3007 3005 3003 3000 2997 2995 2992 2990 2987 2985 2983 2980 2978 2975 2973 2971 2969 2967 2965 2963 2962 2961 2959 2958 2957 2956 2955 2954 2953 2952 2951 2949 2948 2947
3073 3071 3069 3068 3066 3064 3063 3061 3059 3058 3057 3055 3053 3052 3050 3048 3046 3044 3042 3040 3038 3036 3034 3032 3029 3027 3025 3023 3020 3018 3015 3013 3010 3008 3005 3003 3000 2998 2995 2993 2990 2988 2985 2983 2981 2978 2977 2974 2972 2969 2967 2965 2963 2961 2960 2958 2957 2956 2955 2953 2952 2951 2950 2949 2948 2947 2946 2944 2943
3069 3068 3066 3065 3063 3061 3060 3058 3057 3055 3054 3052 3051 3049 3047 3045 3043 3041 3039 3037 3035 3033 3030 3028 3026 3023 3021 3019 3016 3014 3011 3009 3006 3003 3001 2998 2996 2993 2991 2988 2986 2984 2981 2979 2977 2975 2973 2971 2969 2967 2964 2962 2960 2958 2956 2955 2954 2953 2952 2950 2949 2948 2947 2945 2944 2943 2942 2941 2939
3067 3065 3063 3062 3060 3058 3057 3055 3054 3052 3051 3049 3047 3045 3043 3042 3039 3037 3035 3033 3031 3029 3027 3024 3022 3019 3017 3014 3012 3009 3007 3004 3002 2999 2996 2994 2991 2989 2987 2984 2982 2980 2978 2975 2973 2971 2969 2968 2966 2964 2962 2959 2957 2955 2953 2952 2951 2950 2948 2948 2946 2945 2943 2942 2941 2939 2938 2937 2935
3063 3062 3060 3059 3057 3056 3054 3052 3051 3049 3048 3046 3044 3042 3040 3038 3036 3034 3032 3029 3027 3025 3022 3020 3018 3015 3013 3010 3008 3005 3003 3000 2998 2995 2992 2989 2987 2985 2982 2980 2978 2976 2974 2972 2970 2968 2966 2964 2963 2961 2959 2956 2954 2952 2950 2949 2948 2947 2945 2944 2943 2942 2940 2939 2937 2936 2934 2933 2932
3061 3059 3057 3056 3054 3053 3051 3049 3048 3046 3044 3043 3041 3039 3037 3035 3032 3030 3028 3025 3023 3020 3018 3016 3013 3011 3008 3006 3003 3001 2998 2996 2993 2991 2988 2985 2983 2981 2978 2976 2974 2972 2970 2968 2966 2964 2963 2961 2959 2958 2956 2953 2951 2949 2947 2946 2945 2943 2942 2941 2940 2938 2937 2935 2934 2932 2930 2929 2928
3058 3056 3054 3053 3051 3049 3048 3046 3044 3043 3041 3039 3037 3035 3033 3031 3028 3026 3023 3021 3018 3016 3014 3012 3009 3007 3004 3002 2999 2997 2994 2992 2989 2987 2984 2981 2979 2977 2975 2973 2971 2968 2967 2965 2963 2961 2959 2958 2956 2954 2953 2951 2948 2946 2945 2943 2942 2941 2939 2938 2937 2935 2933 2932 2930 2928 2927 2925 2923
3055 3053 3051 3050 3048 3046 3045 3043 3041 3039 3038 3036 3034 3032 3029 3027 3024 3022 3019 3017 3014 3012 3010 3008 3006 3003 3001 2998 2996 2993 2991 2988 2985 2983 2980 2978 2975 2973 2971 2969 2967 2965 2963 2962 2960 2958 2957 2955 2953 2952 2950 2948 2946 2944 2942 2941 2939 2938 2937 2935 2933 2932 2930 2928 2927 2925 2923 2922 2920
3052 3050 3048 3047 3045 3043 3041 3040 3038 3036 3034 3032 3030 3028 3025 3023 3020 3018 3016 3013 3011 3008 3006 3004 3002 2999 2997 2994 2992 2989 2987 2984 2982 2979 2977 2974 2972 2969 2967 2965 2964 2962 2960 2958 2957 2955 2953 2952 2950 2948 2947 2945 2943 2941 2940 2938 2937 2935 2933 2932 2930 2929 2927 2925 2923 2921 2919 2918 2916
3049 3047 3045 3043 3042 3040 3038 3036 3034 3033 3030 3028 3026 3023 3021 3019 3016 3014 3012 3010 3007 3005 3003 3000 2998 2995 2993 2990 2988 2985 2983 2980 2978 2976 2973 2970 2968 2966 2964 2962 2961 2959 2958 2956 2954 2952 2951 2949 2948 2946 2944 2942 2940 2938 2937 2935 2933 2932 2930 2929 2927 2925 2924 2922 2920 2918 2916 2914 2913
3046 3044 3042 3040 3039 3037 3035 3033 3031 3029 3027 3024 3022 3019 3017 3015 3013 3010 3008 3006 3003 3001 2999 2997 2994 2992 2989 2987 2984 2982 2979 2977 2974 2972 2969 2967 2964 2962 2960 2959 2958 2956 2955 2953 2951 2949 2948 2946 2945 2943 2941 2939 2937 2936 2934 2932 2931 2929 2927 2926 2924 2922 2920 2918 2916 2914 2913 2911 2910
3043 3041 3039 3037 3035 3033 3031 3029 3027 3025 3023 3020 3018 3016 3014 3012 3009 3007 3004 3002 3000 2998 2995 2993 2991 2988 2986 2983 2981 2978 2976 2973 2971 2968 2966 2963 2961 2959 2957 2956 2955 2953 2952 2950 2948 2947 2945 2944 2942 2940 2938 2936 2934 2933 2931 2929 2928 2926 2924 2922 2920 2918 2917 2915 2913 2911 2909 2908 2907
3040 3038 3036 3034 3032 3030 3028 3025 3023 3021 3018 3016 3014 3012 3010 3008 3006 3003 3001 2998 2996 2993 2992 2989 2987 2985 2982 2980 2977 2975 2973 2970 2967 2965 2962 2960 2958 2956 2954 2953 2952 2951 2949 2948 2946 2944 2943 2941 2939 2937 2935 2933 2931 2929 2928 2926 2924 2923 2921 2919 2917 2915 2913 2911 2909 2908 2906 2905 2903
3037 3035 3033 3030 3028 3026 3024 3022 3019 3017 3015 3013 3011 3008 3006 3004 3002 2999 2997 2995 2992 2990 2988 2986 2983 2981 2978 2976 2974 2971 2969 2967 2964 2961 2959 2957 2955 2953 2951 2949 2948 2948 2947 2945 2943 2942 2940 2938 2936 2934 2932 2930 2928 2926 2924 2923 2921 2919 2917 2915 2913 2911 2909 2908 2906 2904 2903 2901 2900
3033 3031 3029 3027 3024 3022 3020 3018 3016 3013 3011 3009 3007 3005 3003 3001 2998 2996 2993 2991 2989 2986 2984 2982 2980 2977 2975 2973 2970 2968 2965 2963 2961 2959 2956 2954 2952 2950 2948 2947 2945 2944 2944 2943 2941 2939 2937 2936 2934 2932 2929 2927 2925 2923 2921 2919 2918 2916 2914 2912 2910 2908 2906 2904 2903 2901 2899 2898 2897
3030 3028 3025 3023 3021 3018 3016 3014 3012 3010 3008 3006 3003 3001 2999 2997 2995 2993 2990 2988 2985 2983 2980 2978 2976 2974 2971 2969 2966 2964 2962 2960 2958 2956 2954 2952 2950 2948 2946 2944 2943 2942 2941 2940 2938 2936 2934 2933 2931 2929 2926 2924 2922 2920 2918 2916 2914 2912 2910 2908 2906 2904 2902 2901 2899 2898 2896 2895 2893
3026 3024 3022 3019 3017 3015 3013 3011 3009 3007 3005 3003 3000 2998 2996 2993 2991 2989 2987 2984 2982 2979 2977 2975 2973 2970 2968 2966 2963 2961 2959 2957 2955 2953 2952 2949 2947 2945 2944 2942 2940 2939 2938 2937 2936 2934 2932 2930 2928 2926 2924 2921 2919 2917 2915 2913 2911 2909 2907 2905 2903 2901 2899 2897 2895 2894 2893 2892 2891